Vorticity
12 6 5 7 8 6 6 7 7 8 7 7 7 7 7 7 7 7 7 8 8 8
5 6 7 7 7 5 5 5 6 6 6 6 7 8 8 8 8 8 7 7 7 8
10 7 6 5 4 5 5 7 8 7 7 8 8 8 9 10 9 8 7 6 7 7
7 7 6 6 6 7 7 7 8 8 8 8 8 8 9 9 9 9 8 7 7 7
7 7 7 6 7 7 8 8 9 9 9 9 8 8 9 9 9 10 9 7 10 8
7 5 5 6 7 8 8 11 10 9 10 10 10 10 9 8 9 9 8 7 10 7
6 7 8 8 10 12 14 14 14 14 14 12 11 11 11 10 10 9 9 8 11 7
4 5 8 11 14 17 17 14 13 13 13 14 13 13 12 11 10 11 9 9 10 11
4 12 16 17 16 11 9 10 12 10 6 5 6 8 8 9 10 11 11 10 10 11
13 16 14 12 9 9 10 8 5 5 6 7 10 11 13 13 13 12 12 11 10 10
17 13 11 9 11 10 8 8 7 6 8 11 13 11 9 11 13 15 12 11 9 9
12 10 10 10 9 9 9 8 5 10 11 11 13 9 9 9 13 17 14 12 11 11
9 9 9 9 9 12 8 9 10 14 13 13 15 13 9 12 17 17 15 11 11 11
9 9 9 10 13 8 9 10 13 12 15 13 13 12 13 20 18 17 15 14 13 14
Height
3122 3120 3118 3115 3113 3110 3108 3105 3101 3098 3095 3092 3088 3085 3081 3078 3075 3073 3070 3068 3065 3062
3117 3114 3113 3110 3108 3105 3102 3099 3095 3092 3089 3085 3082 3079 3076 3072 3069 3067 3064 3062 3059 3056
3111 3109 3107 3104 3102 3099 3096 3093 3090 3086 3083 3080 3076 3072 3070 3066 3063 3060 3057 3055 3053 3050
3105 3103 3101 3098 3095 3092 3090 3085 3082 3079 3076 3072 3069 3065 3062 3058 3055 3052 3050 3047 3045 3043
3099 3097 3095 3091 3088 3084 3081 3078 3074 3071 3067 3064 3060 3057 3054 3050 3047 3045 3043 3040 3037 3035
3092 3090 3087 3083 3080 3076 3073 3069 3065 3061 3058 3055 3052 3049 3045 3042 3039 3037 3035 3032 3030 3026
3085 3081 3078 3075 3071 3067 3062 3059 3056 3053 3050 3047 3043 3040 3037 3034 3031 3029 3026 3023 3021 3018
3077 3073 3069 3065 3061 3058 3055 3051 3048 3045 3042 3039 3036 3033 3029 3025 3022 3019 3017 3014 3012 3010
3069 3065 3061 3058 3055 3051 3048 3045 3042 3039 3035 3032 3028 3024 3020 3016 3012 3010 3008 3005 3003 3001
3060 3056 3053 3051 3048 3045 3042 3038 3035 3031 3027 3023 3019 3014 3010 3005 3002 3000 2998 2996 2994 2991
3052 3049 3047 3045 3041 3037 3034 3030 3027 3023 3018 3014 3010 3005 3001 2996 2991 2990 2988 2985 2983 2980
3044 3042 3039 3036 3034 3030 3027 3023 3019 3014 3009 3004 3001 2996 2992 2987 2982 2979 2977 2975 2973 2970
3036 3034 3032 3029 3026 3023 3019 3015 3010 3006 3001 2995 2992 2988 2982 2977 2972 2969 2967 2965 2962 2960
3028 3026 3023 3021 3016 3014 3011 3006 3002 2997 2991 2987 2982 2978 2973 2967 2963 2960 2957 2955 2953 2951